Hourly Data Report for October 21, 2014

All times are specified in Local Standard Time (LST). Add 1 hour to adjust for Daylight Saving Time where and when it is observed.

FREDERICTON
NEW BRUNSWICK

45°52'08.000" N
66°32'14.000" W
20.70 m
8101505
71700
YFC

Download Data

Hourly Data (October 2014)
Hourly Data Report for October 21, 2014
Temp Definition
°C
Dew Point Temp Definition
°C
Rel Hum Definition
%
Wind Dir Definition
10's deg

Wind Spd Definition
km/h
Visibility Definition
km
Stn Press Definition
kPa
Hmdx Definition


Wind Chill Definition


Weather Definition


TIME
00:00 Legend Double Dagger -0.5 -1.8 91 16 8 16.1 101.26   -3 LegendNANA
01:00 Legend Double Dagger 0.9 -1.3 85 LegendMM 4 16.1 101.31     LegendNANA
02:00 Legend Double Dagger 1.4 -0.3 88 21 9 16.1 101.35     LegendNANA
03:00 Legend Double Dagger 0.2 -0.9 93 21 11 16.1 101.41     LegendNANA
04:00 Legend Double Dagger -0.9 -1.6 95 19 8 16.1 101.48   -4 LegendNANA
05:00 Legend Double Dagger -2.0 -2.1 99 19 5 16.1 101.54   -4 LegendNANA
06:00 Legend Double Dagger -1.4 -2.1 95 20 9 16.1 101.60   -5 LegendNANA
07:00 Legend Double Dagger -1.7 -1.8 99 27 4 16.1 101.67   -3 LegendNANA
08:00 Legend Double Dagger 0.2 -0.7 94 21 8 16.1 101.72     LegendNANA
09:00 Legend Double Dagger 2.6 0.3 85   0 16.1 101.77     LegendNANA
10:00 Legend Double Dagger 5.5 1.0 73 LegendMM 4 16.1 101.78     LegendNANA
11:00 Legend Double Dagger 8.0 1.2 62 2 8 16.1 101.77     LegendNANA
12:00 Legend Double Dagger 9.1 0.0 53 17 8 16.1 101.80     LegendNANA
13:00 Legend Double Dagger 8.7 0.6 57 19 13 16.1 101.84     LegendNANA
14:00 Legend Double Dagger 8.8 0.6 56 19 5 16.1 101.84     LegendNANA
15:00 Legend Double Dagger 8.6 0.9 58 LegendMM 4 16.1 101.87     LegendNANA
16:00 Legend Double Dagger 8.9 1.1 58 LegendMM 4 16.1 101.89     LegendNANA
17:00 Legend Double Dagger 8.5 2.9 68 36 5 16.1 101.95     LegendNANA
18:00 Legend Double Dagger 7.7 2.2 68 3 5 16.1 101.97     LegendNANA
19:00 Legend Double Dagger 6.7 3.2 78 1 8 16.1 102.02     LegendNANA
20:00 Legend Double Dagger 6.5 3.3 80 4 5 16.1 102.04     LegendNANA
21:00 Legend Double Dagger 7.3 2.9 73 2 9 16.1 102.11     LegendNANA
22:00 Legend Double Dagger 7.3 2.5 71 3 11 16.1 102.18     LegendNANA
23:00 Legend Double Dagger 7.2 2.2 71 4 9 16.1 102.23     LegendNANA

Notes on Data Quality.

Legend

  • E = Estimated
  • M = Missing
  • NA = Not Available
  • ‡ = Partner data that is not subject to review by the National Climate Archives
Date modified: